• In Deutschland
  • Länderverzeichnis
  • Für 7 Tage
  • Wassertemperatur
  • Satellitenkarten
  • Wetterkarte
  • Widgets
  • user-avatar
    Anmelden

    Stündliche Wetter Betanzos

    Heute, 23 Mai, Mittwoch

    Zeit Temperatur Niederschläge Wind Luftdruck Luftfeuchtigkeit
    00:00 +6°C° 0 mm 1 m/S 505 mmHg 75%
    01:00 +6°C° 0 mm 1 m/S 505 mmHg 76%
    02:00 +6°C° 0 mm 1 m/S 505 mmHg 77%
    03:00 +4°C° 0 mm 0 m/S 504 mmHg 76%
    04:00 +4°C° 0 mm 0 m/S 504 mmHg 76%
    05:00 +4°C° 0 mm 0 m/S 504 mmHg 75%
    06:00 +5°C° 0 mm 0 m/S 505 mmHg 68%
    07:00 +6°C° 0 mm 0 m/S 506 mmHg 61%
    08:00 +8°C° 0 mm 1 m/S 507 mmHg 54%
    09:00 +10°C° 0 mm 1 m/S 508 mmHg 46%
    10:00 +12°C° 0 mm 1 m/S 509 mmHg 38%
    11:00 +14°C° 0 mm 1 m/S 510 mmHg 31%
    12:00 +15°C° 0 mm 2 m/S 510 mmHg 29%
    13:00 +16°C° 0 mm 3 m/S 510 mmHg 28%
    14:00 +17°C° 0 mm 3 m/S 510 mmHg 27%
    15:00 +15°C° 0 mm 4 m/S 509 mmHg 31%
    16:00 +14°C° 0 mm 4 m/S 508 mmHg 35%
    17:00 +13°C° 0 mm 4 m/S 508 mmHg 40%
    18:00 +12°C° 0 mm 4 m/S 507 mmHg 47%
    19:00 +10°C° 0 mm 3 m/S 507 mmHg 55%
    20:00 +9°C° 0 mm 2 m/S 507 mmHg 62%
    21:00 +8°C° 0 mm 2 m/S 507 mmHg 66%
    22:00 +8°C° 0 mm 1 m/S 507 mmHg 69%
    23:00 +8°C° 0 mm 1 m/S 506 mmHg 73%

    Morgen, 24 Mai, Donnerstag

    Zeit Temperatur Niederschläge Wind Luftdruck Luftfeuchtigkeit
    00:00 +7°C° 0 mm 1 m/S 506 mmHg 74%
    01:00 +7°C° 0 mm 1 m/S 506 mmHg 76%
    02:00 +6°C° 0 mm 1 m/S 506 mmHg 77%
    03:00 +6°C° 0 mm 1 m/S 505 mmHg 77%
    04:00 +5°C° 0 mm 1 m/S 505 mmHg 77%
    05:00 +5°C° 0 mm 1 m/S 505 mmHg 77%
    06:00 +6°C° 0 mm 1 m/S 506 mmHg 72%
    07:00 +7°C° 0 mm 1 m/S 506 mmHg 67%
    08:00 +7°C° 0 mm 1 m/S 507 mmHg 61%
    09:00 +9°C° 0 mm 1 m/S 508 mmHg 53%
    10:00 +11°C° 0 mm 1 m/S 509 mmHg 46%
    11:00 +13°C° 0 mm 2 m/S 510 mmHg 38%
    12:00 +14°C° 0 mm 2 m/S 510 mmHg 36%
    13:00 +14°C° 0 mm 3 m/S 510 mmHg 33%
    14:00 +16°C° 0 mm 3 m/S 510 mmHg 30%
    15:00 +14°C° 0 mm 3 m/S 509 mmHg 35%
    16:00 +13°C° 0 mm 4 m/S 509 mmHg 39%
    17:00 +12°C° 0 mm 4 m/S 508 mmHg 44%
    18:00 +11°C° 0 mm 3 m/S 508 mmHg 52%
    19:00 +9°C° 0 mm 2 m/S 507 mmHg 60%
    20:00 +8°C° 0 mm 2 m/S 507 mmHg 68%
    21:00 +7°C° 0 mm 2 m/S 507 mmHg 71%
    22:00 +7°C° 0 mm 2 m/S 507 mmHg 73%
    23:00 +6°C° 0 mm 2 m/S 507 mmHg 76%

    übermorgen, 25 Mai, Freitag

    Zeit Temperatur Niederschläge Wind Luftdruck Luftfeuchtigkeit
    00:00 +7°C° 0 mm 1 m/S 506 mmHg 78%
    01:00 +6°C° 0 mm 1 m/S 506 mmHg 80%
    02:00 +6°C° 0 mm 1 m/S 506 mmHg 81%
    03:00 +6°C° 0 mm 1 m/S 505 mmHg 81%
    04:00 +5°C° 0 mm 1 m/S 505 mmHg 80%
    05:00 +5°C° 0 mm 1 m/S 504 mmHg 79%
    06:00 +6°C° 0 mm 1 m/S 505 mmHg 72%
    07:00 +6°C° 0 mm 0 m/S 506 mmHg 64%
    08:00 +7°C° 0 mm 0 m/S 507 mmHg 57%
    09:00 +10°C° 0 mm 1 m/S 508 mmHg 47%
    10:00 +12°C° 0 mm 1 m/S 509 mmHg 38%
    11:00 +14°C° 0 mm 1 m/S 510 mmHg 28%
    12:00 +15°C° 0 mm 2 m/S 510 mmHg 26%
    13:00 +16°C° 0 mm 2 m/S 510 mmHg 23%
    14:00 +16°C° 0 mm 3 m/S 510 mmHg 21%
    15:00 +16°C° 0 mm 3 m/S 509 mmHg 25%
    16:00 +14°C° 0 mm 3 m/S 509 mmHg 29%
    17:00 +14°C° 0 mm 4 m/S 508 mmHg 34%
    18:00 +12°C° 0 mm 3 m/S 508 mmHg 43%
    19:00 +10°C° 0 mm 2 m/S 507 mmHg 52%
    20:00 +9°C° 0 mm 2 m/S 507 mmHg 62%
    21:00 +8°C° 0 mm 2 m/S 507 mmHg 66%
    22:00 +7°C° 0 mm 2 m/S 506 mmHg 71%
    23:00 +7°C° 0 mm 2 m/S 506 mmHg 75%

    26 Mai, Samstag

    Zeit Temperatur Niederschläge Wind Luftdruck Luftfeuchtigkeit
    00:00 +7°C° 0 mm 1 m/S 506 mmHg 76%
    01:00 +7°C° 0 mm 1 m/S 505 mmHg 77%
    02:00 +7°C° 0 mm 1 m/S 505 mmHg 78%
    03:00 +6°C° 0 mm 1 m/S 504 mmHg 76%
    04:00 +6°C° 0 mm 1 m/S 504 mmHg 74%
    05:00 +5°C° 0 mm 1 m/S 503 mmHg 72%
    06:00 +6°C° 0 mm 1 m/S 504 mmHg 64%
    07:00 +7°C° 0 mm 1 m/S 505 mmHg 57%
    08:00 +9°C° 0 mm 1 m/S 506 mmHg 49%
    09:00 +10°C° 0 mm 2 m/S 507 mmHg 40%
    10:00 +13°C° 0 mm 2 m/S 508 mmHg 31%
    11:00 +15°C° 0 mm 2 m/S 509 mmHg 22%
    12:00 +16°C° 0 mm 3 m/S 509 mmHg 19%
    13:00 +17°C° 0 mm 3 m/S 509 mmHg 17%
    14:00 +18°C° 0 mm 3 m/S 509 mmHg 14%
    15:00 +17°C° 0 mm 4 m/S 509 mmHg 17%
    16:00 +17°C° 0 mm 4 m/S 508 mmHg 21%
    17:00 +15°C° 0 mm 4 m/S 508 mmHg 24%
    18:00 +13°C° 0 mm 3 m/S 507 mmHg 33%
    19:00 +12°C° 0 mm 2 m/S 506 mmHg 42%
    20:00 +10°C° 0 mm 1 m/S 506 mmHg 50%
    21:00 +10°C° 0 mm 1 m/S 506 mmHg 55%
    22:00 +9°C° 0 mm 1 m/S 505 mmHg 59%
    23:00 +8°C° 0 mm 1 m/S 505 mmHg 64%

    27 Mai, Sonntag

    Zeit Temperatur Niederschläge Wind Luftdruck Luftfeuchtigkeit
    00:00 +8°C° 0 mm 1 m/S 505 mmHg 63%
    01:00 +8°C° 0 mm 1 m/S 504 mmHg 62%
    02:00 +7°C° 0 mm 1 m/S 504 mmHg 61%
    03:00 +7°C° 0 mm 1 m/S 504 mmHg 58%
    04:00 +6°C° 0 mm 1 m/S 503 mmHg 55%
    05:00 +6°C° 0 mm 1 m/S 503 mmHg 53%
    06:00 +7°C° 0 mm 1 m/S 504 mmHg 49%
    07:00 +8°C° 0 mm 1 m/S 506 mmHg 45%
    08:00 +10°C° 0 mm 1 m/S 507 mmHg 41%
    09:00 +11°C° 0 mm 1 m/S 508 mmHg 36%
    10:00 +13°C° 0 mm 1 m/S 509 mmHg 31%
    11:00 +15°C° 0 mm 2 m/S 510 mmHg 25%
    12:00 +15°C° 0 mm 2 m/S 509 mmHg 25%
    13:00 +16°C° 0 mm 3 m/S 509 mmHg 24%
    14:00 +17°C° 0 mm 3 m/S 509 mmHg 24%
    15:00 +16°C° 0 mm 3 m/S 509 mmHg 31%
    16:00 +14°C° 0 mm 4 m/S 508 mmHg 37%
    17:00 +13°C° 0 mm 4 m/S 508 mmHg 44%
    18:00 +12°C° 0 mm 4 m/S 508 mmHg 54%
    19:00 +11°C° 0 mm 3 m/S 507 mmHg 64%
    20:00 +9°C° 0 mm 2 m/S 507 mmHg 73%
    21:00 +9°C° 0 mm 2 m/S 507 mmHg 75%
    22:00 +9°C° 0 mm 2 m/S 507 mmHg 77%
    23:00 +8°C° 0 mm 2 m/S 507 mmHg 79%

    28 Mai, Montag

    Zeit Temperatur Niederschläge Wind Luftdruck Luftfeuchtigkeit
    00:00 +8°C° 0 mm 2 m/S 507 mmHg 82%
    01:00 +8°C° 0 mm 2 m/S 507 mmHg 84%
    02:00 +7°C° 0 mm 2 m/S 506 mmHg 87%
    03:00 +7°C° 0 mm 2 m/S 506 mmHg 87%
    04:00 +7°C° 0 mm 2 m/S 506 mmHg 87%
    05:00 +7°C° 0 mm 2 m/S 506 mmHg 87%
    06:00 +7°C° 0 mm 2 m/S 506 mmHg 83%
    07:00 +7°C° 0 mm 2 m/S 507 mmHg 80%
    08:00 +8°C° 0 mm 2 m/S 507 mmHg 76%
    09:00 +9°C° 0 mm 2 m/S 508 mmHg 65%
    10:00 +12°C° 0 mm 2 m/S 509 mmHg 54%
    11:00 +14°C° 0 mm 2 m/S 509 mmHg 43%
    12:00 +14°C° 0 mm 3 m/S 509 mmHg 38%
    13:00 +16°C° 0 mm 3 m/S 509 mmHg 33%
    14:00 +17°C° 0 mm 3 m/S 509 mmHg 28%
    15:00 +15°C° 0 mm 4 m/S 508 mmHg 30%
    16:00 +15°C° 0 mm 4 m/S 508 mmHg 32%
    17:00 +15°C° 0 mm 4 m/S 507 mmHg 35%
    18:00 +13°C° 0 mm 3 m/S 507 mmHg 41%
    19:00 +13°C° 0 mm 2 m/S 507 mmHg 47%
    20:00 +11°C° 0 mm 1 m/S 506 mmHg 53%
    21:00 +10°C° 0 mm 1 m/S 506 mmHg 54%
    22:00 +10°C° 0 mm 1 m/S 506 mmHg 56%
    23:00 +9°C° 0 mm 1 m/S 506 mmHg 58%
    Mehr zeigen